Location: Mentone
(34.5413°N, 85.5351°W)
Time: 14:58:55
(UTC-06:00)

UOSAT-12 - Visible Passes

Search period start: 14 February 2016 00:00
Search period end: 24 February 2016 00:00
Orbit: 613 x 641 km, 64.6° (Epoch: 13 February)

Date Brightness Start Highest point End Pass type
(mag) Time Alt. Az. Time Alt. Az. Time Alt. Az.
14 Feb 9.2 03:51:05 23° NE 03:51:05 23° NE 03:52:58 10° NE visible
14 Feb 8.7 05:28:25 16° NW 05:28:52 16° NW 05:31:49 10° N visible
15 Feb 9.0 04:11:11 23° NNE 04:11:11 23° NNE 04:12:58 10° NNE visible
16 Feb 9.1 04:31:07 17° N 04:31:07 17° N 04:32:28 10° N visible
17 Feb 9.5 04:50:55 11° NNW 04:50:55 11° NNW 04:51:11 10° NNW visible
